This demonstration page uses our WeatherBlox Daily Observations layout. Learn more.

Left ArrowRight Arrow

38.88101, -77.10428

Hourly Observations for October 26, 2022

Temp ( °F °C ) Dew Point ( °F °C ) Humidity (%) Winds ( mph kmh ) Pressure ( in mb ) Visibility ( mi km ) Precip ( " mm )
12:19 am 00:19 Cloudy 59 15 58 14.4 96 96 S 6 9 29.97 1015 10 16 0.00 0.00
12:31 am 00:31 Cloudy 59 15 58 14.4 96 96 S 3 6 29.97 1015 10 16 0.00 0.00
12:52 am 00:52 Cloudy with Light Rain 59 15 58 14.4 96 96 S 5 7 29.96 1014 9 14 0.01 0.13
1:09 am 01:09 Cloudy with Drizzle 59 15 58 14.4 96 96 S 3 6 29.96 1015 3 4 0.01 0.25
1:19 am 01:19 Cloudy with Drizzle 59 15 58 14.4 96 96 SSW 3 6 29.95 1014 3 5 0.01 0.25
1:29 am 01:29 Cloudy with Drizzle 59 15 58 14.4 96 96 SSE 3 6 29.95 1014 3 4 0.02 0.51
1:38 am 01:38 Cloudy with Drizzle 59 15 58 14.4 96 96 SSE 3 6 29.94 1014 4 6 0.02 0.51
1:52 am 01:52 Cloudy with Drizzle 59 15 58 14.4 96 96 SSE 5 7 29.94 1014 4 6 0.02 0.51
2:18 am 02:18 Cloudy with Drizzle 59 15 58 14.4 96 96 ESE 3 6 29.94 1014 2 3 0.01 0.25
2:26 am 02:26 Cloudy with Drizzle 59 15 58 14.4 96 96 Calm 29.93 1014 3 5 0.01 0.25
2:52 am 02:52 Cloudy with Drizzle 59 15 58 14.4 96 96 Calm 29.92 1013 4 6 0.02 0.51
3:52 am 03:52 Cloudy 59 15 58 14.4 96 96 SSE 5 7 29.90 1013 10 16 0.01 0.13
4:31 am 04:31 Cloudy 59 15 58 14.4 96 96 SE 5 7 29.88 1012 10 16 0.00 0.00
4:52 am 04:52 Cloudy 59 15 58 14.4 96 96 SSE 3 6 29.88 1012 10 16 0.00 0.00
4:55 am 04:55 Cloudy 59 15 58 14.4 96 96 SSE 3 6 29.88 1012 10 16 0.00 0.00
5:52 am 05:52 Cloudy 59 15 58 14.4 96 96 SSW 3 6 29.89 1012 10 16 0.00 0.00
6:52 am 06:52 Cloudy with Drizzle 59 15 58 14.4 96 96 Calm 29.88 1012 4 6 0.01 0.13
7:41 am 07:41 Cloudy 60 15.6 57 13.9 90 90 SSW 6 9 29.88 1012 10 16 0.01 0.13
7:52 am 07:52 Cloudy 60 15.6 57 13.9 90 90 SSW 5 7 29.87 1011 10 16 0.01 0.13
8:52 am 08:52 Cloudy 60 15.6 57 13.9 90 90 W 7 11 29.88 1012 10 16 0.00 0.00
9:34 am 09:34 Cloudy 60 15.6 56 13.3 86 86 WSW 7 11 29.88 1012 10 16 0.00 0.00
9:52 am 09:52 Cloudy 60 15.6 56 13.3 86 86 SW 6 9 29.88 1012 10 16 0.00 0.00
10:52 am 10:52 Mostly Cloudy 61 16.1 57 13.9 87 87 S 9 15 29.86 1011 10 16 0.00 0.00
11:18 am 11:18 Mostly Cloudy 62 16.7 58 14.4 86 86 S 10 17 29.86 1011 10 16 0.00 0.00
11:52 am 11:52 Cloudy with Light Rain 62 16.7 58 14.4 86 86 S 10 17 29.85 1011 10 16 0.01 0.13
12:16 pm 12:16 Cloudy 62 16.7 57 13.9 84 84 S 9 15 29.85 1011 10 16 0.01 0.13
12:52 pm 12:52 Cloudy 62 16.7 58 14.4 86 86 S 8 13 29.83 1010 10 16 0.01 0.13
1:24 pm 13:24 Cloudy 63 17.2 59 15 87 87 S 9 15 29.82 1010 10 16 0.00 0.00
1:52 pm 13:52 Cloudy 63 17.2 58 14.4 84 84 S 12 19 29.80 1009 10 16 0.00 0.00
2:40 pm 14:40 Mostly Cloudy 65 18.3 58 14.4 78 78 S 10 17 29.79 1009 10 16 0.00 0.00
2:52 pm 14:52 Mostly Cloudy 65 18.3 58 14.4 78 78 S 10 17 29.78 1009 10 16 0.00 0.00
3:52 pm 15:52 Mostly Cloudy 67 19.4 57 13.9 71 71 SW 12 19 29.78 1008 10 16 0.00 0.00
4:52 pm 16:52 Partly Cloudy 68 20 57 13.9 68 68 SW 13 20 29.78 1008 10 16 0.00 0.00
5:52 pm 17:52 Partly Cloudy 66 18.9 57 13.9 73 73 SW 8 13 29.79 1009 10 16 0.00 0.00
6:52 pm 18:52 Mostly Clear 65 18.3 56 13.3 73 73 SW 6 9 29.82 1010 10 16 0.00 0.00
7:52 pm 19:52 Cloudy 65 18.3 57 13.9 76 76 WSW 6 9 29.85 1011 10 16 0.00 0.00
8:52 pm 20:52 Cloudy 66 18.9 52 11.1 61 61 NW 14 22 29.87 1012 10 16 0.00 0.00
9:52 pm 21:52 Mostly Cloudy 64 17.8 48 8.9 56 56 NW 10 17 29.89 1012 10 16 0.00 0.00
10:52 pm 22:52 Partly Cloudy 63 17.2 47 8.3 56 56 NW 9 15 29.91 1013 10 16 0.00 0.00
11:52 pm 23:52 Mostly Clear 61 16.1 47 8.3 60 60 NW 10 17 29.93 1014 10 16 0.00 0.00

Powered by AerisWeather